Flag for Canada Weather past 2 weeks in Haldimand, Ontario, Canada

Now
75 °F

Passing clouds.


Feels Like: 77 °F
Forecast: 68 / 85 °F
Wind: 6 mph from South

Location: Hamilton Airport

Current Time: Jul 28, 2015 at 11:10:59 PM

Latest Report: Jul 28, 2015 at 10:00 PM


Visibility: 15 mi

Pressure: 29.98 "Hg

Humidity: 69%

Dew point: 64 °F

Location of HaldimandLocation

Historic Weather in Haldimand — Graph

°F

Haldimand temperature yesterday

Maximum temperature yesterday: 86 °F (at 2:00 PM)
Minimum temperature yesterday: 64 °F (at 6:00 AM)
Average temperature yesterday: 76 °F

Past Weeks' High & Low Weather Summary

 TemperatureHumidityPressure
High88 °F (Jul 18, 4:00 PM)100% (Jul 14, 1:00 AM)30.14 "Hg (Jul 14, 1:00 AM)
Low52 °F (Jul 16, 3:00 AM)34% (Jul 24, 3:00 PM)29.50 "Hg (Jul 14, 4:00 PM)
Average70 °F73%29.88 "Hg
* Reported Jul 13 10:00 PM — Jul 28 10:00 PM, Haldimand, Weather by CustomWeather, © 2015

Note: Actual official high and low records may vary slightly from our data, if they occured in-between our weather recording intervals... More about our weather records

Advertising

Haldimand weather history for previous 24 hours

 ConditionsComfort  
Time TempWeatherWind HumidityBarometerVisibility
10:00 PM
Tue, Jul 28
75 °FPassing clouds.6 mph69%29.98 "Hg15 mi
9:00 PM79 °FPartly sunny.5 mph61%29.98 "Hg15 mi
8:00 PM81 °FPartly sunny.7 mph62%29.97 "Hg15 mi
7:00 PM86 °FPartly sunny.5 mph49%29.97 "Hg15 mi
6:00 PM88 °FBroken clouds.6 mph40%29.99 "Hg15 mi
5:00 PM88 °FPartly sunny.5 mph40%30.00 "Hg15 mi
4:00 PM88 °FPartly sunny.7 mph40%30.00 "Hg15 mi
3:00 PM86 °FScattered clouds.5 mph46%30.01 "Hg15 mi
2:00 PM86 °FBroken clouds.5 mph46%30.02 "Hg15 mi
1:00 PM84 °FScattered clouds.10 mph45%30.03 "Hg15 mi
12:00 PM84 °FPassing clouds.6 mph51%30.03 "Hg15 mi
11:00 AM82 °FSunny.7 mph51%30.04 "Hg15 mi
10:00 AM81 °FSunny.5 mph54%30.04 "Hg15 mi
9:00 AM77 °FSunny.2 mph65%30.05 "Hg15 mi
8:00 AM73 °FSunny.2 mph74%30.04 "Hg15 mi
7:00 AM64 °FPassing clouds.3 mph94%30.03 "Hg15 mi
6:00 AM64 °FPassing clouds.No wind88%30.03 "Hg15 mi
5:00 AM70 °FPassing clouds.5 mph73%30.03 "Hg15 mi
4:00 AM70 °FPassing clouds.6 mph78%30.03 "Hg15 mi
3:00 AM66 °FPassing clouds.6 mph88%30.03 "Hg15 mi
2:00 AM70 °FPassing clouds.3 mph78%30.04 "Hg15 mi
1:00 AM70 °FClear.No wind78%30.04 "Hg15 mi
12:00 AM70 °FClear.2 mph78%30.03 "Hg15 mi
11:00 PM
Mon, Jul 27
73 °FClear.2 mph69%30.02 "Hg15 mi
Weather by CustomWeather, © 2015

See weather overviewHow to use our weather pages